Year,Month,Day,Hour,Minute,Value (Times are PST for temperature in C)
2014,06,23,00,00,10.80
2014,06,23,00,01,10.80
2014,06,23,00,02,10.80
2014,06,23,00,03,10.80
2014,06,23,00,04,10.80
2014,06,23,00,05,10.80
2014,06,23,00,06,10.80
2014,06,23,00,07,10.70
2014,06,23,00,08,10.70
2014,06,23,00,09,10.70
2014,06,23,00,10,10.70
2014,06,23,00,11,10.80
2014,06,23,00,12,10.80
2014,06,23,00,13,10.80
2014,06,23,00,14,10.80
2014,06,23,00,15,10.80
2014,06,23,00,16,10.80
2014,06,23,00,17,10.80
2014,06,23,00,18,10.80
2014,06,23,00,19,10.90
2014,06,23,00,20,10.90
2014,06,23,00,21,10.90
2014,06,23,00,22,10.90
2014,06,23,00,23,10.90
2014,06,23,00,24,10.90
2014,06,23,00,25,10.90
2014,06,23,00,26,10.90
2014,06,23,00,27,10.90
2014,06,23,00,28,10.90
2014,06,23,00,29,10.90
2014,06,23,00,30,10.90
2014,06,23,00,31,10.90
2014,06,23,00,32,10.90
2014,06,23,00,33,10.90
2014,06,23,00,34,10.80
2014,06,23,00,35,10.80
2014,06,23,00,36,10.80
2014,06,23,00,37,10.80
2014,06,23,00,38,10.80
2014,06,23,00,39,10.80
2014,06,23,00,40,10.80
2014,06,23,00,41,10.70
2014,06,23,00,42,10.70
2014,06,23,00,43,10.70
2014,06,23,00,44,10.60
2014,06,23,00,45,10.60
2014,06,23,00,46,10.50
2014,06,23,00,47,10.50
2014,06,23,00,48,10.40
2014,06,23,00,49,10.40
2014,06,23,00,50,10.30
2014,06,23,00,51,10.30
2014,06,23,00,52,10.20
2014,06,23,00,53,10.20
2014,06,23,00,54,10.10
2014,06,23,00,55,10.10
2014,06,23,00,56,10.10
2014,06,23,00,57,10.10
2014,06,23,00,58,10.00
2014,06,23,00,59,10.00
2014,06,23,01,00,10.00
2014,06,23,01,01,9.90
2014,06,23,01,02,9.90
2014,06,23,01,03,9.90
2014,06,23,01,04,9.90
2014,06,23,01,05,9.90
2014,06,23,01,06,9.90
2014,06,23,01,07,9.90
2014,06,23,01,08,9.90
2014,06,23,01,09,9.90
2014,06,23,01,10,9.90
2014,06,23,01,11,9.80
2014,06,23,01,12,9.80
2014,06,23,01,13,9.80
2014,06,23,01,14,9.80
2014,06,23,01,15,9.80
2014,06,23,01,16,9.80
2014,06,23,01,17,9.80
2014,06,23,01,18,9.90
2014,06,23,01,19,9.80
2014,06,23,01,20,9.80
2014,06,23,01,21,9.80
2014,06,23,01,22,9.80
2014,06,23,01,23,9.80
2014,06,23,01,24,9.80
2014,06,23,01,25,9.80
2014,06,23,01,26,9.80
2014,06,23,01,27,9.80
2014,06,23,01,28,9.80
2014,06,23,01,29,9.90
2014,06,23,01,30,9.90
2014,06,23,01,31,9.90
2014,06,23,01,32,9.90
2014,06,23,01,33,9.90
2014,06,23,01,34,9.90
2014,06,23,01,35,9.90
2014,06,23,01,36,9.90
2014,06,23,01,37,9.90
2014,06,23,01,38,9.90
2014,06,23,01,39,9.90
2014,06,23,01,40,9.90
2014,06,23,01,41,9.90
2014,06,23,01,42,9.90
2014,06,23,01,43,9.90
2014,06,23,01,44,9.90
2014,06,23,01,45,9.90
2014,06,23,01,46,9.90
2014,06,23,01,47,9.90
2014,06,23,01,48,9.90
2014,06,23,01,49,9.90
2014,06,23,01,50,9.90
2014,06,23,01,51,9.90
2014,06,23,01,52,9.90
2014,06,23,01,53,9.90
2014,06,23,01,54,9.90
2014,06,23,01,55,9.90
2014,06,23,01,56,9.90
2014,06,23,01,57,9.90
2014,06,23,01,58,9.90
2014,06,23,01,59,9.90
2014,06,23,02,00,9.90
2014,06,23,02,01,9.90
2014,06,23,02,02,9.80
2014,06,23,02,03,9.80
2014,06,23,02,04,9.80
2014,06,23,02,05,9.80
2014,06,23,02,06,9.80
2014,06,23,02,07,9.80
2014,06,23,02,08,9.80
2014,06,23,02,09,9.80
2014,06,23,02,10,9.80
2014,06,23,02,11,9.80
2014,06,23,02,12,9.70
2014,06,23,02,13,9.70
2014,06,23,02,14,9.70
2014,06,23,02,15,9.60
2014,06,23,02,16,9.60
2014,06,23,02,17,9.60
2014,06,23,02,18,9.60
2014,06,23,02,19,9.60
2014,06,23,02,20,9.50
2014,06,23,02,21,9.50
2014,06,23,02,22,9.50
2014,06,23,02,23,9.50
2014,06,23,02,24,9.50
2014,06,23,02,25,9.50
2014,06,23,02,26,9.50
2014,06,23,02,27,9.50
2014,06,23,02,28,9.50
2014,06,23,02,29,9.50
2014,06,23,02,30,9.50
2014,06,23,02,31,9.60
2014,06,23,02,32,9.60
2014,06,23,02,33,9.60
2014,06,23,02,34,9.60
2014,06,23,02,35,9.60
2014,06,23,02,36,9.60
2014,06,23,02,37,9.60
2014,06,23,02,38,9.50
2014,06,23,02,39,9.50
2014,06,23,02,40,9.40
2014,06,23,02,41,9.40
2014,06,23,02,42,9.40
2014,06,23,02,43,9.40
2014,06,23,02,44,9.40
2014,06,23,02,45,9.30
2014,06,23,02,46,9.30
2014,06,23,02,47,9.30
2014,06,23,02,48,9.30
2014,06,23,02,49,9.30
2014,06,23,02,50,9.30
2014,06,23,02,51,9.30
2014,06,23,02,52,9.30
2014,06,23,02,53,9.30
2014,06,23,02,54,9.30
2014,06,23,02,55,9.30
2014,06,23,02,56,9.30
2014,06,23,02,57,9.30
2014,06,23,02,58,9.30
2014,06,23,02,59,9.30
2014,06,23,03,00,9.20
2014,06,23,03,01,9.20
2014,06,23,03,02,9.20
2014,06,23,03,03,9.20
2014,06,23,03,04,9.20
2014,06,23,03,05,9.20
2014,06,23,03,06,9.20
2014,06,23,03,07,9.20
2014,06,23,03,08,9.20
2014,06,23,03,09,9.20
2014,06,23,03,10,9.20
2014,06,23,03,11,9.20
2014,06,23,03,12,9.10
2014,06,23,03,13,9.10
2014,06,23,03,14,9.20
2014,06,23,03,15,9.20
2014,06,23,03,16,9.20
2014,06,23,03,17,9.20
2014,06,23,03,18,9.20
2014,06,23,03,19,9.20
2014,06,23,03,20,9.20
2014,06,23,03,21,9.20
2014,06,23,03,22,9.20
2014,06,23,03,23,9.20
2014,06,23,03,24,9.20
2014,06,23,03,25,9.20
2014,06,23,03,26,9.20
2014,06,23,03,27,9.20
2014,06,23,03,28,9.20
2014,06,23,03,29,9.10
2014,06,23,03,30,9.20
2014,06,23,03,31,9.10
2014,06,23,03,32,9.10
2014,06,23,03,33,9.10
2014,06,23,03,34,9.10
2014,06,23,03,35,9.10
2014,06,23,03,36,9.10
2014,06,23,03,37,9.10
2014,06,23,03,38,9.10
2014,06,23,03,39,9.10
2014,06,23,03,40,9.10
2014,06,23,03,41,9.10
2014,06,23,03,42,9.10
2014,06,23,03,43,9.10
2014,06,23,03,44,9.10
2014,06,23,03,45,9.10
2014,06,23,03,46,9.10
2014,06,23,03,47,9.10
2014,06,23,03,48,9.10
2014,06,23,03,49,9.10
2014,06,23,03,50,9.10
2014,06,23,03,51,9.10
2014,06,23,03,52,9.10
2014,06,23,03,53,9.10
2014,06,23,03,54,9.10
2014,06,23,03,55,9.10
2014,06,23,03,56,9.10
2014,06,23,03,57,9.10
2014,06,23,03,58,9.20
2014,06,23,03,59,9.20
2014,06,23,04,00,9.20
2014,06,23,04,01,9.20
2014,06,23,04,02,9.30
2014,06,23,04,03,9.30
2014,06,23,04,04,9.30
2014,06,23,04,05,9.30
2014,06,23,04,06,9.30
2014,06,23,04,07,9.30
2014,06,23,04,08,9.30
2014,06,23,04,09,9.30
2014,06,23,04,10,9.30
2014,06,23,04,11,9.40
2014,06,23,04,12,9.40
2014,06,23,04,13,9.40
2014,06,23,04,14,9.40
2014,06,23,04,15,9.40
2014,06,23,04,16,9.40
2014,06,23,04,17,9.40
2014,06,23,04,18,9.40
2014,06,23,04,19,9.40
2014,06,23,04,20,9.40
2014,06,23,04,21,9.40
2014,06,23,04,22,9.50
2014,06,23,04,23,9.50
2014,06,23,04,24,9.50
2014,06,23,04,25,9.50
2014,06,23,04,26,9.50
2014,06,23,04,27,9.50
2014,06,23,04,28,9.50
2014,06,23,04,29,9.50
2014,06,23,04,30,9.50
2014,06,23,04,31,9.50
2014,06,23,04,32,9.50
2014,06,23,04,33,9.50
2014,06,23,04,34,9.50
2014,06,23,04,35,9.50
2014,06,23,04,36,9.50
2014,06,23,04,37,9.50
2014,06,23,04,38,9.50
2014,06,23,04,39,9.50
2014,06,23,04,40,9.50
2014,06,23,04,41,9.50
2014,06,23,04,42,9.50
2014,06,23,04,43,9.50
2014,06,23,04,44,9.50
2014,06,23,04,45,9.50
2014,06,23,04,46,9.50
2014,06,23,04,47,9.50
2014,06,23,04,48,9.50
2014,06,23,04,49,9.50
2014,06,23,04,50,9.50
2014,06,23,04,51,9.50
2014,06,23,04,52,9.50
2014,06,23,04,53,9.50
2014,06,23,04,54,9.50
2014,06,23,04,55,9.50
2014,06,23,04,56,9.50
2014,06,23,04,57,9.50
2014,06,23,04,58,9.50
2014,06,23,04,59,9.40
2014,06,23,05,00,9.40
2014,06,23,05,01,9.40
2014,06,23,05,02,9.40
2014,06,23,05,03,9.40
2014,06,23,05,04,9.40
2014,06,23,05,05,9.40
2014,06,23,05,06,9.30
2014,06,23,05,07,9.30
2014,06,23,05,08,9.30
2014,06,23,05,09,9.30
2014,06,23,05,10,9.30
2014,06,23,05,11,9.40
2014,06,23,05,12,9.40
2014,06,23,05,13,9.50
2014,06,23,05,14,9.50
2014,06,23,05,15,9.50
2014,06,23,05,16,9.50
2014,06,23,05,17,9.50
2014,06,23,05,18,9.40
2014,06,23,05,19,9.40
2014,06,23,05,20,9.40
2014,06,23,05,21,9.40
2014,06,23,05,22,9.40
2014,06,23,05,23,9.40
2014,06,23,05,24,9.40
2014,06,23,05,25,9.40
2014,06,23,05,26,9.40
2014,06,23,05,27,9.40
2014,06,23,05,28,9.40
2014,06,23,05,29,9.40
2014,06,23,05,30,9.40
2014,06,23,05,31,9.40
2014,06,23,05,32,9.40
2014,06,23,05,33,9.40
2014,06,23,05,34,9.40
2014,06,23,05,35,9.50
2014,06,23,05,36,9.50
2014,06,23,05,37,9.60
2014,06,23,05,38,9.60
2014,06,23,05,39,9.60
2014,06,23,05,40,9.60
2014,06,23,05,41,9.60
2014,06,23,05,42,9.60
2014,06,23,05,43,9.60
2014,06,23,05,44,9.60
2014,06,23,05,45,9.60
2014,06,23,05,46,9.60
2014,06,23,05,47,9.60
2014,06,23,05,48,9.60
2014,06,23,05,49,9.70
2014,06,23,05,50,9.70
2014,06,23,05,51,9.80
2014,06,23,05,52,9.90
2014,06,23,05,53,9.90
2014,06,23,05,54,9.90
2014,06,23,05,55,10.00
2014,06,23,05,56,10.00
2014,06,23,05,57,10.00
2014,06,23,05,58,10.00
2014,06,23,05,59,10.00
2014,06,23,06,00,10.00
2014,06,23,06,01,9.90
2014,06,23,06,02,9.90
2014,06,23,06,03,9.90
2014,06,23,06,04,9.90
2014,06,23,06,05,9.90
2014,06,23,06,06,9.90
2014,06,23,06,07,9.90
2014,06,23,06,08,9.90
2014,06,23,06,09,9.90
2014,06,23,06,10,9.90
2014,06,23,06,11,9.90
2014,06,23,06,12,9.90
2014,06,23,06,13,9.90
2014,06,23,06,14,9.90
2014,06,23,06,15,9.90
2014,06,23,06,16,9.90
2014,06,23,06,17,9.90
2014,06,23,06,18,9.90
2014,06,23,06,19,9.90
2014,06,23,06,20,9.90
2014,06,23,06,21,9.90
2014,06,23,06,22,9.90
2014,06,23,06,23,9.90
2014,06,23,06,24,9.90
2014,06,23,06,25,9.90
2014,06,23,06,26,9.90
2014,06,23,06,27,9.90
2014,06,23,06,28,9.90
2014,06,23,06,29,9.90
2014,06,23,06,30,9.90
2014,06,23,06,31,9.90
2014,06,23,06,32,9.90
2014,06,23,06,33,10.00
2014,06,23,06,34,10.00
2014,06,23,06,35,10.00
2014,06,23,06,36,10.10
2014,06,23,06,37,10.10
2014,06,23,06,38,10.10
2014,06,23,06,39,10.10
2014,06,23,06,40,10.20
2014,06,23,06,41,10.30
2014,06,23,06,42,10.30
2014,06,23,06,43,10.40
2014,06,23,06,44,10.40
2014,06,23,06,45,10.50
2014,06,23,06,46,10.60
2014,06,23,06,47,10.70
2014,06,23,06,48,10.80
2014,06,23,06,49,10.90
2014,06,23,06,50,11.10
2014,06,23,06,51,11.20
2014,06,23,06,52,11.40
2014,06,23,06,53,11.60
2014,06,23,06,54,11.70
2014,06,23,06,55,11.80
2014,06,23,06,56,11.90
2014,06,23,06,57,12.00
2014,06,23,06,58,12.10
2014,06,23,06,59,12.20
2014,06,23,07,00,12.30
2014,06,23,07,01,12.40
2014,06,23,07,02,12.40
2014,06,23,07,03,12.50
2014,06,23,07,04,12.50
2014,06,23,07,05,12.50
2014,06,23,07,06,12.50
2014,06,23,07,07,12.40
2014,06,23,07,08,12.40
2014,06,23,07,09,12.40
2014,06,23,07,10,12.30
2014,06,23,07,11,12.30
2014,06,23,07,12,12.30
2014,06,23,07,13,12.30
2014,06,23,07,14,12.30
2014,06,23,07,15,12.30
2014,06,23,07,16,12.20
2014,06,23,07,17,12.20
2014,06,23,07,18,12.20
2014,06,23,07,19,12.30
2014,06,23,07,20,12.30
2014,06,23,07,21,12.30
2014,06,23,07,22,12.30
2014,06,23,07,23,12.40
2014,06,23,07,24,12.40
2014,06,23,07,25,12.40
2014,06,23,07,26,12.50
2014,06,23,07,27,12.50
2014,06,23,07,28,12.60
2014,06,23,07,29,12.60
2014,06,23,07,30,12.60
2014,06,23,07,31,12.70
2014,06,23,07,32,12.70
2014,06,23,07,33,12.70
2014,06,23,07,34,12.70
2014,06,23,07,35,12.80
2014,06,23,07,36,12.80
2014,06,23,07,37,12.90
2014,06,23,07,38,13.00
2014,06,23,07,39,13.00
2014,06,23,07,40,13.00
2014,06,23,07,41,13.10
2014,06,23,07,42,13.10
2014,06,23,07,43,13.10
2014,06,23,07,44,13.20
2014,06,23,07,45,13.10
2014,06,23,07,46,13.10
2014,06,23,07,47,13.10
2014,06,23,07,48,13.00
2014,06,23,07,49,12.90
2014,06,23,07,50,12.90
2014,06,23,07,51,12.80
2014,06,23,07,52,12.80
2014,06,23,07,53,12.80
2014,06,23,07,54,12.80
2014,06,23,07,55,12.70
2014,06,23,07,56,12.60
2014,06,23,07,57,12.60
2014,06,23,07,58,12.50
2014,06,23,07,59,12.50
2014,06,23,08,00,12.40
2014,06,23,08,01,12.40
2014,06,23,08,02,12.40
2014,06,23,08,03,12.40
2014,06,23,08,04,12.50
2014,06,23,08,05,12.50
2014,06,23,08,06,12.50
2014,06,23,08,07,12.50
2014,06,23,08,08,12.50
2014,06,23,08,09,12.60
2014,06,23,08,10,12.60
2014,06,23,08,11,12.50
2014,06,23,08,12,12.50
2014,06,23,08,13,12.60
2014,06,23,08,14,12.50
2014,06,23,08,15,12.50
2014,06,23,08,16,12.40
2014,06,23,08,17,12.40
2014,06,23,08,18,12.40
2014,06,23,08,19,12.40
2014,06,23,08,20,12.30
2014,06,23,08,21,12.30
2014,06,23,08,22,12.40
2014,06,23,08,23,12.40
2014,06,23,08,24,12.40
2014,06,23,08,25,12.40
2014,06,23,08,26,12.50
2014,06,23,08,27,12.50
2014,06,23,08,28,12.50
2014,06,23,08,29,12.60
2014,06,23,08,30,12.60
2014,06,23,08,31,12.60
2014,06,23,08,32,12.60
2014,06,23,08,33,12.60
2014,06,23,08,34,12.60
2014,06,23,08,35,12.60
2014,06,23,08,36,12.60
2014,06,23,08,37,12.60
2014,06,23,08,38,12.60
2014,06,23,08,39,12.50
2014,06,23,08,40,12.50
2014,06,23,08,41,12.60
2014,06,23,08,42,12.60
2014,06,23,08,43,12.70
2014,06,23,08,44,12.70
2014,06,23,08,45,12.70
2014,06,23,08,46,12.80
2014,06,23,08,47,12.80
2014,06,23,08,48,12.90
2014,06,23,08,49,12.90
2014,06,23,08,50,13.00
2014,06,23,08,51,13.10
2014,06,23,08,52,13.20
2014,06,23,08,53,13.20
2014,06,23,08,54,13.30
2014,06,23,08,55,13.30
2014,06,23,08,56,13.40
2014,06,23,08,57,13.40
2014,06,23,08,58,13.40
2014,06,23,08,59,13.50
2014,06,23,09,00,13.50
2014,06,23,09,01,13.50
2014,06,23,09,02,13.50
2014,06,23,09,03,13.40
2014,06,23,09,04,13.40
2014,06,23,09,05,13.40
2014,06,23,09,06,13.40
2014,06,23,09,07,13.40
2014,06,23,09,08,13.30
2014,06,23,09,09,13.30
2014,06,23,09,10,13.20
2014,06,23,09,11,13.10
2014,06,23,09,12,13.10
2014,06,23,09,13,13.10
2014,06,23,09,14,13.10
2014,06,23,09,15,13.10
2014,06,23,09,16,13.10
2014,06,23,09,17,13.10
2014,06,23,09,18,13.10
2014,06,23,09,19,13.10
2014,06,23,09,20,13.10
2014,06,23,09,21,13.00
2014,06,23,09,22,12.90
2014,06,23,09,23,12.80
2014,06,23,09,24,12.70
2014,06,23,09,25,12.60
2014,06,23,09,26,12.60
2014,06,23,09,27,12.60
2014,06,23,09,28,12.60
2014,06,23,09,29,12.60
2014,06,23,09,30,12.60
2014,06,23,09,31,12.60
2014,06,23,09,32,12.60
2014,06,23,09,33,12.60
2014,06,23,09,34,12.50
2014,06,23,09,35,12.50
2014,06,23,09,36,12.40
2014,06,23,09,37,12.40
2014,06,23,09,38,12.30
2014,06,23,09,39,12.30
2014,06,23,09,40,12.30
2014,06,23,09,41,12.30
2014,06,23,09,42,12.30
2014,06,23,09,43,12.30
2014,06,23,09,44,12.30
2014,06,23,09,45,12.30
2014,06,23,09,46,12.30
2014,06,23,09,47,12.30
2014,06,23,09,48,12.30
2014,06,23,09,49,12.30
2014,06,23,09,50,12.30
2014,06,23,09,51,12.30
2014,06,23,09,52,12.30
2014,06,23,09,53,12.30
2014,06,23,09,54,12.20
2014,06,23,09,55,12.20
2014,06,23,09,56,12.20
2014,06,23,09,57,12.20
2014,06,23,09,58,12.20
2014,06,23,09,59,12.20
2014,06,23,10,00,12.20
2014,06,23,10,01,12.30
2014,06,23,10,02,12.30
2014,06,23,10,03,12.30
2014,06,23,10,04,12.40
2014,06,23,10,05,12.40
2014,06,23,10,06,12.40
2014,06,23,10,07,12.40
2014,06,23,10,08,12.40
2014,06,23,10,09,12.40
2014,06,23,10,10,12.40
2014,06,23,10,11,12.40
2014,06,23,10,12,12.50
2014,06,23,10,13,12.50
2014,06,23,10,14,12.50
2014,06,23,10,15,12.50
2014,06,23,10,16,12.50
2014,06,23,10,17,12.50
2014,06,23,10,18,12.50
2014,06,23,10,19,12.50
2014,06,23,10,20,12.50
2014,06,23,10,21,12.50
2014,06,23,10,22,12.60
2014,06,23,10,23,12.60
2014,06,23,10,24,12.60
2014,06,23,10,25,12.50
2014,06,23,10,26,12.50
2014,06,23,10,27,12.40
2014,06,23,10,28,12.40
2014,06,23,10,29,12.40
2014,06,23,10,30,12.40
2014,06,23,10,31,12.40
2014,06,23,10,32,12.40
2014,06,23,10,33,12.40
2014,06,23,10,34,12.40
2014,06,23,10,35,12.40
2014,06,23,10,36,12.50
2014,06,23,10,37,12.50
2014,06,23,10,38,12.50
2014,06,23,10,39,12.50
2014,06,23,10,40,12.50
2014,06,23,10,41,12.50
2014,06,23,10,42,12.50
2014,06,23,10,43,12.50
2014,06,23,10,44,12.60
2014,06,23,10,45,12.70
2014,06,23,10,46,12.70
2014,06,23,10,47,12.70
2014,06,23,10,48,12.70
2014,06,23,10,49,12.60
2014,06,23,10,50,12.60
2014,06,23,10,51,12.60
2014,06,23,10,52,12.70
2014,06,23,10,53,12.70
2014,06,23,10,54,12.80
2014,06,23,10,55,12.80
2014,06,23,10,56,12.90
2014,06,23,10,57,13.00
2014,06,23,10,58,13.10
2014,06,23,10,59,13.20
2014,06,23,11,00,13.30
2014,06,23,11,01,13.30
2014,06,23,11,02,13.30
2014,06,23,11,03,13.40
2014,06,23,11,04,13.50
2014,06,23,11,05,13.50
2014,06,23,11,06,13.60
2014,06,23,11,07,13.70
2014,06,23,11,08,13.80
2014,06,23,11,09,14.00
2014,06,23,11,10,14.20
2014,06,23,11,11,14.40
2014,06,23,11,12,14.60
2014,06,23,11,13,14.70
2014,06,23,11,14,14.80
2014,06,23,11,15,14.80
2014,06,23,11,16,14.80
2014,06,23,11,17,14.90
2014,06,23,11,18,14.90
2014,06,23,11,19,15.00
2014,06,23,11,20,15.00
2014,06,23,11,21,15.10
2014,06,23,11,22,15.20
2014,06,23,11,23,15.20
2014,06,23,11,24,15.30
2014,06,23,11,25,15.40
2014,06,23,11,26,15.50
2014,06,23,11,27,15.60
2014,06,23,11,28,15.70
2014,06,23,11,29,15.80
2014,06,23,11,30,15.90
2014,06,23,11,31,16.00
2014,06,23,11,32,16.10
2014,06,23,11,33,16.20
2014,06,23,11,34,16.20
2014,06,23,11,35,16.30
2014,06,23,11,36,16.50
2014,06,23,11,37,16.60
2014,06,23,11,38,16.70
2014,06,23,11,39,16.70
2014,06,23,11,40,16.80
2014,06,23,11,41,16.80
2014,06,23,11,42,16.70
2014,06,23,11,43,16.60
2014,06,23,11,44,16.50
2014,06,23,11,45,16.40
2014,06,23,11,46,16.30
2014,06,23,11,47,16.30
2014,06,23,11,48,16.20
2014,06,23,11,49,16.20
2014,06,23,11,50,16.20
2014,06,23,11,51,16.20
2014,06,23,11,52,16.20
2014,06,23,11,53,16.30
2014,06,23,11,54,16.30
2014,06,23,11,55,16.30
2014,06,23,11,56,16.30
2014,06,23,11,57,16.30
2014,06,23,11,58,16.30
2014,06,23,11,59,16.40
2014,06,23,12,00,16.40
2014,06,23,12,01,16.50
2014,06,23,12,02,16.50
2014,06,23,12,03,16.60
2014,06,23,12,04,16.60
2014,06,23,12,05,16.60
2014,06,23,12,06,16.60
2014,06,23,12,07,16.70
2014,06,23,12,08,16.70
2014,06,23,12,09,16.80
2014,06,23,12,10,16.80
2014,06,23,12,11,16.80
2014,06,23,12,12,16.80
2014,06,23,12,13,16.80
2014,06,23,12,14,16.80
2014,06,23,12,15,16.90
2014,06,23,12,16,16.90
2014,06,23,12,17,17.00
2014,06,23,12,18,17.10
2014,06,23,12,19,17.20
2014,06,23,12,20,17.20
2014,06,23,12,21,17.20
2014,06,23,12,22,17.20
2014,06,23,12,23,17.20
2014,06,23,12,24,17.30
2014,06,23,12,25,17.30
2014,06,23,12,26,17.30
2014,06,23,12,27,17.40
2014,06,23,12,28,17.40
2014,06,23,12,29,17.50
2014,06,23,12,30,17.60
2014,06,23,12,31,17.60
2014,06,23,12,32,17.70
2014,06,23,12,33,17.90
2014,06,23,12,34,18.00
2014,06,23,12,35,18.20
2014,06,23,12,36,18.30
2014,06,23,12,37,18.40
2014,06,23,12,38,18.60
2014,06,23,12,39,18.70
2014,06,23,12,40,18.80
2014,06,23,12,41,18.90
2014,06,23,12,42,19.10
2014,06,23,12,43,19.10
2014,06,23,12,44,19.20
2014,06,23,12,45,19.30
2014,06,23,12,46,19.30
2014,06,23,12,47,19.40
2014,06,23,12,48,19.40
2014,06,23,12,49,19.50
2014,06,23,12,50,19.50
2014,06,23,12,51,19.60
2014,06,23,12,52,19.60
2014,06,23,12,53,19.60
2014,06,23,12,54,19.70
2014,06,23,12,55,19.80
2014,06,23,12,56,19.90
2014,06,23,12,57,20.00
2014,06,23,12,58,20.00
2014,06,23,12,59,20.00
2014,06,23,13,00,19.90
2014,06,23,13,01,19.90
2014,06,23,13,02,20.00
2014,06,23,13,03,20.00
2014,06,23,13,04,20.10
2014,06,23,13,05,20.10
2014,06,23,13,06,20.20
2014,06,23,13,07,20.20
2014,06,23,13,08,20.20
2014,06,23,13,09,20.20
2014,06,23,13,10,20.20
2014,06,23,13,11,20.20
2014,06,23,13,12,20.20
2014,06,23,13,13,20.10
2014,06,23,13,14,20.10
2014,06,23,13,15,20.00
2014,06,23,13,16,19.90
2014,06,23,13,17,19.80
2014,06,23,13,18,19.80
2014,06,23,13,19,19.80
2014,06,23,13,20,19.80
2014,06,23,13,21,19.80
2014,06,23,13,22,19.90
2014,06,23,13,23,19.90
2014,06,23,13,24,19.90
2014,06,23,13,25,19.90
2014,06,23,13,26,19.90
2014,06,23,13,27,19.90
2014,06,23,13,28,19.90
2014,06,23,13,29,19.90
2014,06,23,13,30,20.00
2014,06,23,13,31,20.00
2014,06,23,13,32,20.00
2014,06,23,13,33,19.90
2014,06,23,13,34,19.90
2014,06,23,13,35,19.80
2014,06,23,13,36,19.80
2014,06,23,13,37,19.70
2014,06,23,13,38,19.70
2014,06,23,13,39,19.60
2014,06,23,13,40,19.60
2014,06,23,13,41,19.50
2014,06,23,13,42,19.50
2014,06,23,13,43,19.40
2014,06,23,13,44,19.40
2014,06,23,13,45,19.40
2014,06,23,13,46,19.30
2014,06,23,13,47,19.30
2014,06,23,13,48,19.30
2014,06,23,13,49,19.30
2014,06,23,13,50,19.30
2014,06,23,13,51,19.20
2014,06,23,13,52,19.20
2014,06,23,13,53,19.20
2014,06,23,13,54,19.20
2014,06,23,13,55,19.30
2014,06,23,13,56,19.30
2014,06,23,13,57,19.30
2014,06,23,13,58,19.40
2014,06,23,13,59,19.40
2014,06,23,14,00,19.40
2014,06,23,14,01,19.40
2014,06,23,14,02,19.50
2014,06,23,14,03,19.60
2014,06,23,14,04,19.60
2014,06,23,14,05,19.60
2014,06,23,14,06,19.70
2014,06,23,14,07,19.70
2014,06,23,14,08,19.70
2014,06,23,14,09,19.70
2014,06,23,14,10,19.70
2014,06,23,14,11,19.70
2014,06,23,14,12,19.70
2014,06,23,14,13,19.70
2014,06,23,14,14,19.60
2014,06,23,14,15,19.60
2014,06,23,14,16,19.50
2014,06,23,14,17,19.40
2014,06,23,14,18,19.40
2014,06,23,14,19,19.30
2014,06,23,14,20,19.30
2014,06,23,14,21,19.30
2014,06,23,14,22,19.30
2014,06,23,14,23,19.20
2014,06,23,14,24,19.20
2014,06,23,14,25,19.10
2014,06,23,14,26,19.10
2014,06,23,14,27,19.10
2014,06,23,14,28,19.00
2014,06,23,14,29,18.90
2014,06,23,14,30,18.90
2014,06,23,14,31,18.90
2014,06,23,14,32,18.80
2014,06,23,14,33,18.80
2014,06,23,14,34,18.80
2014,06,23,14,35,18.80
2014,06,23,14,36,18.80
2014,06,23,14,37,18.80
2014,06,23,14,38,18.80
2014,06,23,14,39,18.80
2014,06,23,14,40,18.80
2014,06,23,14,41,18.80
2014,06,23,14,42,18.80
2014,06,23,14,43,18.80
2014,06,23,14,44,18.80
2014,06,23,14,45,18.80
2014,06,23,14,46,18.80
2014,06,23,14,47,18.80
2014,06,23,14,48,18.80
2014,06,23,14,49,18.80
2014,06,23,14,50,18.80
2014,06,23,14,51,18.80
2014,06,23,14,52,18.80
2014,06,23,14,53,18.80
2014,06,23,14,54,18.80
2014,06,23,14,55,18.70
2014,06,23,14,56,18.70
2014,06,23,14,57,18.60
2014,06,23,14,58,18.60
2014,06,23,14,59,18.60
2014,06,23,15,00,18.50
2014,06,23,15,01,18.50
2014,06,23,15,02,18.40
2014,06,23,15,03,18.40
2014,06,23,15,04,18.40
2014,06,23,15,05,18.30
2014,06,23,15,06,18.30
2014,06,23,15,07,18.30
2014,06,23,15,08,18.30
2014,06,23,15,09,18.20
2014,06,23,15,10,18.20
2014,06,23,15,11,18.20
2014,06,23,15,12,18.20
2014,06,23,15,13,18.20
2014,06,23,15,14,18.20
2014,06,23,15,15,18.30
2014,06,23,15,16,18.30
2014,06,23,15,17,18.40
2014,06,23,15,18,18.40
2014,06,23,15,19,18.40
2014,06,23,15,20,18.30
2014,06,23,15,21,18.30
2014,06,23,15,22,18.40
2014,06,23,15,23,18.50
2014,06,23,15,24,18.60
2014,06,23,15,25,18.60
2014,06,23,15,26,18.70
2014,06,23,15,27,18.70
2014,06,23,15,28,18.70
2014,06,23,15,29,18.70
2014,06,23,15,30,18.70
2014,06,23,15,31,18.60
2014,06,23,15,32,18.60
2014,06,23,15,33,18.60
2014,06,23,15,34,18.60
2014,06,23,15,35,18.50
2014,06,23,15,36,18.50
2014,06,23,15,37,18.50
2014,06,23,15,38,18.50
2014,06,23,15,39,18.50
2014,06,23,15,40,18.50
2014,06,23,15,41,18.50
2014,06,23,15,42,18.50
2014,06,23,15,43,18.40
2014,06,23,15,44,18.40
2014,06,23,15,45,18.40
2014,06,23,15,46,18.30
2014,06,23,15,47,18.30
2014,06,23,15,48,18.20
2014,06,23,15,49,18.10
2014,06,23,15,50,18.10
2014,06,23,15,51,18.10
2014,06,23,15,52,18.00
2014,06,23,15,53,18.00
2014,06,23,15,54,17.90
2014,06,23,15,55,17.90
2014,06,23,15,56,17.90
2014,06,23,15,57,17.80
2014,06,23,15,58,17.80
2014,06,23,15,59,17.80
2014,06,23,16,00,17.80
2014,06,23,16,01,17.80
2014,06,23,16,02,17.80
2014,06,23,16,03,17.80
2014,06,23,16,04,17.80
2014,06,23,16,05,17.80
2014,06,23,16,06,17.70
2014,06,23,16,07,17.70
2014,06,23,16,08,17.70
2014,06,23,16,09,17.70
2014,06,23,16,10,17.70
2014,06,23,16,11,17.70
2014,06,23,16,12,17.70
2014,06,23,16,13,17.70
2014,06,23,16,14,17.70
2014,06,23,16,15,17.70
2014,06,23,16,16,17.60
2014,06,23,16,17,17.70
2014,06,23,16,18,17.70
2014,06,23,16,19,17.70
2014,06,23,16,20,17.60
2014,06,23,16,21,17.60
2014,06,23,16,22,17.60
2014,06,23,16,23,17.50
2014,06,23,16,24,17.50
2014,06,23,16,25,17.50
2014,06,23,16,26,17.50
2014,06,23,16,27,17.50
2014,06,23,16,28,17.50
2014,06,23,16,29,17.50
2014,06,23,16,30,17.60
2014,06,23,16,31,17.50
2014,06,23,16,32,17.50
2014,06,23,16,33,17.50
2014,06,23,16,34,17.40
2014,06,23,16,35,17.40
2014,06,23,16,36,17.40
2014,06,23,16,37,17.40
2014,06,23,16,38,17.30
2014,06,23,16,39,17.30
2014,06,23,16,40,17.30
2014,06,23,16,41,17.30
2014,06,23,16,42,17.30
2014,06,23,16,43,17.30
2014,06,23,16,44,17.20
2014,06,23,16,45,17.20
2014,06,23,16,46,17.20
2014,06,23,16,47,17.20
2014,06,23,16,48,17.20
2014,06,23,16,49,17.20
2014,06,23,16,50,17.20
2014,06,23,16,51,17.20
2014,06,23,16,52,17.20
2014,06,23,16,53,17.20
2014,06,23,16,54,17.20
2014,06,23,16,55,17.20
2014,06,23,16,56,17.20
2014,06,23,16,57,17.20
2014,06,23,16,58,17.20
2014,06,23,16,59,17.20
2014,06,23,17,00,17.20
2014,06,23,17,01,17.20
2014,06,23,17,02,17.20
2014,06,23,17,03,17.20
2014,06,23,17,04,17.20
2014,06,23,17,05,17.20
2014,06,23,17,06,17.20
2014,06,23,17,07,17.20
2014,06,23,17,08,17.20
2014,06,23,17,09,17.20
2014,06,23,17,10,17.20
2014,06,23,17,11,17.20
2014,06,23,17,12,17.20
2014,06,23,17,13,17.20
2014,06,23,17,14,17.20
2014,06,23,17,15,17.20
2014,06,23,17,16,17.20
2014,06,23,17,17,17.20
2014,06,23,17,18,17.20
2014,06,23,17,19,17.20
2014,06,23,17,20,17.20
2014,06,23,17,21,17.20
2014,06,23,17,22,17.20
2014,06,23,17,23,17.20
2014,06,23,17,24,17.20
2014,06,23,17,25,17.20
2014,06,23,17,26,17.30
2014,06,23,17,27,17.30
2014,06,23,17,28,17.30
2014,06,23,17,29,17.30
2014,06,23,17,30,17.30
2014,06,23,17,31,17.20
2014,06,23,17,32,17.20
2014,06,23,17,33,17.20